Вернуться в каталог

STARLINK-36396

АктивенСвязьVLEO
NORAD 67494·PAYLOAD·🇺🇸 United States

Запущен Jan 18, 2026 с Cape Canaveral Space Force Station

Loading…

Ближайшие Пролёты (ближайшие 24 часа)

TLE

СвежийSource: CelesTrak SupGP

Эпоха: Sep 14, 2026, 23:05 UTC

1 67494C 26012B   26257.96229167 -.00003296  00000+0 -11939-3 0  2579
2 67494  43.0008 325.6338 0001512 272.0186 218.7746 15.27574373    12

Отслеживайте STARLINK-36396 в реальном времени с AllMySat

Download on the App Store